Regional Weather Roundup
Issued by NWS

Home | Current Version | Previous Version | Graphics & Text | Print | Product List | Glossary On
Versions: 1 2 3 4 5 6 7 8 9 10 11 12 13 14 15 16 17 18 19 20 21 22 23 24 25 26 27 28 29 30 31 32 33 34 35 36 37 38 39 40 41 42 43 44 45 46 47 48 49 50
000
ASUS43 KIND 140459
RWRIN

WEATHER ROUNDUP FOR INDIANA
NATIONAL WEATHER SERVICE INDIANAPOLIS IN
1200 AM EST THU DEC 14 2017

NOTE: "FAIR" INDICATES FEW OR NO CLOUDS BELOW 12,000 FEET WITH NO
SIGNIFICANT WEATHER AND/OR OBSTRUCTIONS TO VISIBILITY.

* - STATION DOES NOT REPORT WEATHER SUCH AS PRECIPITATION OR FOG.

+ - STATION NOT QUALITY CONTROLLED BY THE NATIONAL WEATHER SERVICE.
    USE DATA WITH CAUTION...ESPECIALLY DEWPOINT AND RELATIVE
    HUMIDITY OBSERVATIONS.

INZ001>003-010>013-019-020-140600-
NORTHWEST INDIANA

CITY           SKY/WX    TMP DP  RH WIND       PRES   REMARKS
KNOX *+        CLOUDY    30  23  74 N20G26    29.65R WCI  18
LA PORTE +     LGT SNOW  27  22  80 N18G26    29.66R WCI  14
MICHIGAN CITY+ FLURRIES  28  21  74 N20G29    29.68R WCI  15
MONTICELLO +   CLOUDY    29  19  67 NW20G28   29.67R WCI  16
RENSSELAER +   CLOUDY    30  19  64 NW16G22   29.69R WCI  19

$$

LMZ046-743>745-140600-
SOUTHERN LAKE MICHIGAN

STATION/POSITION TIME  TEMP    WIND        PRES    WAVE
                       AIR SEA DIR/SP/G            HT
                 (UTC) (F)     (DEG/KT/KT) (MB)    (FT)
BURNS HARBOR     0440   31     350/ 26/ 33 1005.8R
MICHIGAN CITY    0430   29     350/ 36/ 40   N/A

$$

INZ004-005-014>016-021>024-140600-
NORTH CENTRAL INDIANA

CITY           SKY/WX    TMP DP  RH WIND       PRES   REMARKS
GOSHEN         MIX PCPN  22  17  81 NW20G28   29.61R WCI   7
PERU/GRISSOM   CLOUDY    29  21  73 NW22G30   29.62R WCI  15
SOUTH BEND     MOCLDY    19  17  92 N14       29.66R WCI   6
WARSAW +       CLOUDY    27  19  74 NW17G32   29.60R WCI  14

$$

INZ006>009-017-018-025>027-140600-
NORTHEAST INDIANA

CITY           SKY/WX    TMP DP  RH WIND       PRES   REMARKS
AUBURN +       FLURRIES  25  19  80 NW17G23   29.55R WCI  11
FORT WAYNE     LGT SNOW  30  25  81 NW23G32   29.55R WCI  17
KENDALLVILLE + CLOUDY    22  18  87 N13G20    29.55R WCI   9

$$

INZ028-029-035-036-043>045-051>053-140600-
WEST CENTRAL INDIANA

CITY           SKY/WX    TMP DP  RH WIND       PRES   REMARKS
CRAWFORDSVL +  CLOUDY    28  20  73 NW17G32   29.70R WCI  15
GREENCASTLE +  CLOUDY    32  23  69 NW15G26   29.71R WCI  22
LAFAYETTE      CLOUDY    28  19  69 NW18G28   29.70R WCI  15
TERRE HAUTE    CLOUDY    35  24  64 NW10G25   29.74R WCI  27

$$

INZ030>032-037>040-046>048-054>057-064-065-140600-
CENTRAL INDIANA

CITY           SKY/WX    TMP DP  RH WIND       PRES   REMARKS
FRANKFORT +    CLOUDY    32  22  66 NW28G33   29.69R WCI  18
GREENWOOD *+   CLOUDY    37  26  65 NW15G39   29.66R WCI  27
INDIANAPOLIS   CLOUDY    32  23  69 NW25G35   29.68R WCI  19
-EAGLE CREEK   CLOUDY    32  22  66 NW28G38   29.66R WCI  18
KOKOMO +       FLURRIES  29  21  72 W22G29    29.63R WCI  15
MT COMFORT *+  CLOUDY    32  27  80 NW21G31   29.64R WCI  20
SHELBYVILLE    CLOUDY    35  23  61 W29G39    29.63R WCI  22

$$

INZ033-034-041-042-049-050-058-059-140600-
EAST CENTRAL INDIANA

CITY           SKY/WX    TMP DP  RH WIND       PRES   REMARKS
MUNCIE         CLOUDY    32  22  66 NW18G35   29.59R WCI  20
RICHMOND +     CLOUDY    32  28  86 W26G41    29.55R WCI  18

$$

INZ060-061-067>069-081>083-085>088-140600-
SOUTHWEST INDIANA

CITY           SKY/WX    TMP DP  RH WIND       PRES   REMARKS
EVANSVILLE     MOCLDY    39  30  70 VRB6      29.79R WCI  35
HUNTINGBURG +  CLOUDY    39  29  67 NW16G22   29.75R WCI  30

$$

INZ062-063-066-070>080-084-089>092-140600-
SOUTH CENTRAL AND SOUTHEAST INDIANA

CITY           SKY/WX    TMP DP  RH WIND       PRES   REMARKS
BLOOMINGTON    CLOUDY    37  26  64 NW16G24   29.69R WCI  28
MADISON *+     CLOUDY    39  28  65 W17G26    29.66R WCI  30
SEYMOUR +      CLOUDY    39  28  65 W18G29    29.67R WCI  30

$$





USA.gov is the U.S. government's official web portal to all federal, state and local government web resources and services.